SCP
0 0 0 0 0 0 0 1 1 0 0 0 0 0 0 0 0 1 1 1 1 1 2 2 2 2 2 2 1 1 1 1 1 1 1 1 1 1 1 1 1 1 0 0 0 0 0 0 0
0 0 0 0 0 0 0 1 1 0 0 0 0 0 0 0 0 1 1 1 1 2 2 2 2 2 2 2 1 1 1 1 1 1 1 1 1 1 1 1 1 1 1 0 0 0 0 0 0
0 0 0 0 0 0 1 1 0 0 0 0 0 0 0 0 0 1 1 1 1 2 2 2 2 3 2 2 1 1 1 1 1 1 1 1 1 1 1 1 1 1 1 1 1 1 0 0 0
1 1 1 0 0 0 1 0 0 0 0 0 0 0 0 0 0 1 1 1 1 2 2 3 3 3 3 2 1 1 1 1 1 1 1 1 1 1 1 1 1 1 1 1 1 1 1 1 1
1 1 1 1 0 0 0 0 0 0 0 0 0 0 0 1 1 1 1 1 1 2 2 3 3 3 3 2 1 1 1 1 1 1 1 1 1 1 1 1 1 1 1 1 1 0 1 1 1
1 1 1 1 0 0 0 0 0 0 0 0 0 1 1 1 1 1 1 1 1 2 3 3 3 3 2 2 1 1 1 1 1 1 1 1 1 1 1 1 1 1 1 1 0 0 1 1 1
1 1 1 0 0 0 0 0 0 0 0 0 1 1 1 1 1 2 1 1 2 2 3 3 3 2 2 2 1 1 1 1 1 1 1 1 1 1 1 1 1 1 1 1 1 0 1 1 1
1 1 0 0 0 0 0 0 0 0 0 0 1 1 1 1 1 2 2 2 2 3 3 3 3 3 2 1 1 1 1 1 1 1 1 1 1 1 1 1 1 1 1 1 1 1 1 0 0
1 1 0 0 0 0 0 0 0 0 0 0 1 1 1 1 2 2 2 2 2 3 3 3 3 3 2 2 1 1 1 1 1 1 1 1 1 1 1 1 1 1 1 1 1 1 1 0 0
0 0 0 0 0 0 0 0 0 0 0 0 0 1 1 1 1 2 2 2 2 3 3 3 3 3 2 2 2 2 1 1 1 1 1 1 1 1 1 1 1 1 1 1 0 1 1 0 0
0 0 0 0 0 0 0 0 0 0 0 0 0 1 1 1 1 1 2 2 2 3 3 3 3 3 3 2 3 3 2 1 1 1 1 1 1 1 1 1 1 1 1 1 1 1 1 1 1
0 0 0 0 0 0 0 0 0 0 0 0 0 1 1 1 1 1 2 2 3 3 2 2 2 2 2 2 3 3 3 2 1 1 0 0 1 1 1 1 1 1 1 1 1 1 1 1 1
0 0 0 0 0 0 0 0 0 0 0 1 1 1 1 1 1 2 2 3 3 2 2 2 2 2 2 2 2 3 2 2 1 1 1 0 0 1 1 1 1 1 1 1 1 1 1 1 1
0 0 0 0 0 0 0 0 0 0 1 1 1 1 1 1 2 3 3 2 2 1 1 1 1 1 1 2 2 2 2 2 2 1 1 0 0 1 1 1 1 1 1 1 1 1 1 0 0
0 0 0 0 0 0 0 0 0 0 1 2 2 1 1 2 2 2 2 1 1 1 1 1 1 1 1 1 1 1 1 2 2 1 1 1 1 1 1 1 1 1 1 1 1 1 1 0 0
0 0 0 0 0 0 0 0 0 0 1 2 2 2 1 1 1 1 1 1 1 1 1 1 1 1 0 0 1 1 1 1 1 1 1 1 1 1 1 1 1 1 1 1 1 1 1 0 0
0 0 0 0 0 0 0 0 0 0 1 1 1 1 1 1 1 1 1 1 1 1 1 1 1 1 1 1 1 1 1 1 1 1 1 1 1 1 1 1 1 1 0 0 0 1 1 0 0
0 0 0 0 0 0 0 0 0 0 1 1 1 1 1 1 1 1 1 1 1 1 1 1 1 1 1 1 1 1 1 1 1 1 1 1 1 1 1 0 0 0 0 0 0 0 0 0 0
0 0 0 0 0 0 0 0 0 0 1 1 1 1 0 0 0 1 1 1 1 1 1 1 1 1 2 2 1 1 1 1 1 1 1 1 1 1 1 1 0 0 0 0 0 0 0 0 0
0 0 0 0 0 0 0 0 0 0 0 1 1 0 0 0 0 0 1 1 1 1 1 1 1 1 1 2 2 1 1 1 1 1 1 1 1 1 1 1 1 0 0 0 0 0 0 0 0
0 0 0 0 0 0 0 0 0 0 0 0 0 0 0 0 0 0 0 0 1 1 1 1 1 1 1 1 1 1 1 1 1 1 1 1 1 1 1 1 1 1 0 0 0 0 0 0 0
0 0 0 0 0 0 0 0 0 0 0 0 0 0 0 0 0 0 0 0 0 1 1 1 1 1 1 2 1 1 1 1 1 1 1 0 1 1 1 1 1 1 1 1 1 0 0 0 0
0 0 0 0 0 0 0 0 0 0 0 0 0 0 0 0 0 0 0 0 0 0 1 1 2 2 2 2 1 1 1 1 1 1 1 0 0 0 0 1 1 1 1 1 1 1 1 0 0
0 0 0 0 0 0 0 0 0 0 0 0 0 0 0 0 0 0 0 0 0 0 0 1 1 2 2 2 2 1 1 1 1 1 0 0 0 0 0 0 1 1 1 1 1 1 1 0 0
0 0 0 0 0 0 0 0 0 0 0 0 0 0 0 0 0 0 0 0 0 0 0 0 1 1 1 2 2 2 1 1 1 1 0 0 0 0 0 0 0 0 1 1 1 1 1 0 0
0 0 0 0 0 0 0 0 0 0 0 0 0 0 0 0 0 0 0 0 0 0 0 0 0 0 1 1 2 2 2 1 1 1 1 0 0 0 0 0 0 0 0 0 1 1 1 1 0
0 0 0 0 0 0 0 0 0 0 0 0 0 0 0 0 0 0 0 0 0 0 0 0 0 0 0 1 1 2 2 2 2 1 1 1 0 0 0 0 0 0 0 0 0 0 0 0 0
0 0 0 0 0 0 0 0 0 0 0 0 0 0 0 0 0 0 0 0 0 0 0 0 0 0 0 0 1 1 2 2 2 2 1 1 1 0 0 0 0 0 0 0 0 0 0 0 0
0 0 0 0 0 0 0 0 0 0 0 0 0 0 0 0 0 0 0 0 0 0 0 0 0 0 0 0 0 0 1 2 3 3 2 2 1 1 0 0 0 0 0 0 0 0 0 0 0
0 0 0 0 0 0 0 0 0 0 0 0 0 0 0 0 0 0 0 0 0 0 0 0 0 0 0 0 0 0 0 1 2 3 3 2 2 1 1 0 0 0 0 0 0 0 0 0 0
Wind_Speed
3 2 3 3 5 5 6 4 2 3 3 1 1 1 1 0 2 4 4 4 5 7 9 9 7 8 9 9 9 9 8 8 7 8 8 8 8 8 8 8 8 8 8 8 8 9 9 9 9
3 2 3 4 6 8 6 5 5 3 2 3 2 2 2 2 3 4 3 3 5 7 8 8 7 8 8 9 9 8 8 7 7 7 7 7 7 8 8 8 8 8 8 8 8 8 8 8 8
2 3 3 4 6 8 5 3 3 2 3 3 3 1 1 2 3 3 3 4 5 7 7 8 7 8 8 8 8 8 8 7 7 7 6 7 7 7 7 7 7 7 8 8 8 8 7 7 7
3 3 3 5 8 6 4 2 2 4 4 2 3 3 3 4 2 3 4 5 7 7 7 9 7 8 8 8 8 7 7 7 7 7 7 7 7 7 7 7 7 7 7 7 7 7 7 7 6
2 3 5 6 8 5 3 2 2 4 4 3 3 3 4 4 3 4 5 5 7 7 6 8 8 8 8 8 8 7 8 7 7 7 7 7 7 7 7 6 6 6 6 6 6 6 6 6 6
3 3 6 8 8 5 3 2 3 4 3 3 3 3 4 4 3 4 5 5 6 7 6 7 8 7 8 8 7 7 7 7 7 7 7 7 7 7 6 6 5 5 5 5 5 5 5 5 5
3 3 6 7 6 6 3 2 4 4 4 3 2 3 4 4 4 4 5 6 6 6 6 6 6 7 7 7 7 7 7 7 7 6 6 6 6 6 5 5 5 5 5 4 4 4 4 4 4
2 3 5 6 7 5 2 3 1 3 2 1 2 3 3 4 4 4 5 5 5 5 5 5 5 5 6 6 7 7 7 7 6 6 6 5 5 5 4 4 5 4 4 4 4 4 4 4 3
2 5 7 6 5 3 2 3 2 1 1 2 0 2 4 6 7 6 5 5 5 4 3 4 4 4 4 5 5 5 6 6 5 5 5 3 2 3 2 4 4 4 4 4 3 3 3 2 3
3 6 6 2 2 1 2 1 1 3 3 3 2 2 4 7 7 7 6 6 5 5 4 3 3 3 3 3 4 3 3 4 3 3 3 2 2 1 1 4 3 3 3 3 3 3 2 1 1
3 4 2 1 0 0 1 1 1 4 4 4 4 4 5 6 6 6 6 6 5 5 4 3 3 3 3 2 2 2 2 2 2 2 2 1 1 1 1 1 2 2 2 1 2 1 1 1 0
3 2 2 1 0 1 1 1 1 3 3 2 2 2 6 7 7 7 6 5 4 4 3 3 3 3 3 2 2 2 2 1 1 1 1 1 1 1 1 1 1 1 1 1 1 1 1 1 1
5 3 2 1 0 1 1 3 4 5 4 3 1 3 6 7 7 6 5 4 4 4 3 2 2 3 2 2 2 2 2 1 2 1 1 1 1 1 1 0 0 0 1 1 1 1 1 2 2
3 3 2 2 3 2 3 5 5 5 2 3 3 4 5 6 6 6 5 5 5 4 3 2 2 2 2 2 2 1 1 1 1 1 1 1 1 0 0 0 0 1 1 1 1 2 2 2 1
3 3 3 3 4 2 3 6 8 5 3 4 3 3 4 4 5 5 5 5 4 3 3 3 2 2 3 2 2 1 1 1 1 1 1 1 1 1 1 1 1 1 1 2 1 2 2 2 2
4 5 5 3 2 3 6 9 5 2 4 5 4 3 3 4 4 4 4 4 3 3 3 3 2 3 3 2 2 1 1 1 1 1 1 1 1 1 1 1 1 1 1 1 1 2 2 2 2
5 6 7 4 2 2 6 8 3 2 5 6 5 4 4 3 3 3 3 3 3 3 3 3 3 3 3 2 2 1 1 1 1 0 0 1 1 1 1 1 1 1 1 1 2 2 2 2 2
7 7 6 6 2 4 7 8 5 4 4 6 5 4 4 4 3 3 2 2 3 3 3 3 3 3 3 2 2 1 1 1 1 1 0 1 1 1 1 1 1 1 1 1 2 2 2 2 1
4 6 7 5 1 5 8 10 9 7 6 6 5 4 4 3 2 1 2 3 3 3 3 3 3 3 2 2 2 1 1 0 0 0 0 1 1 1 1 1 1 1 1 2 2 2 2 1 1
5 6 7 4 2 4 7 10 9 7 7 6 6 5 4 3 3 2 3 3 3 3 3 3 3 3 3 2 1 1 1 1 1 1 0 0 1 1 1 2 1 2 2 2 2 2 1 1 1
7 8 7 4 2 3 6 9 8 6 5 5 5 4 4 4 3 3 3 3 3 3 3 3 3 2 2 2 2 1 1 1 1 1 1 0 1 2 2 3 2 2 2 2 2 2 3 2 2
6 5 6 5 5 4 4 7 7 5 5 4 4 3 3 2 2 2 3 3 3 3 2 3 2 2 2 2 2 3 2 2 2 1 1 1 1 1 2 3 3 3 3 3 3 3 3 3 2
3 1 3 5 5 5 6 7 5 4 6 6 5 3 2 1 1 1 2 2 2 2 2 2 2 2 2 2 2 3 2 2 1 1 1 1 1 1 1 2 3 3 3 4 4 3 4 3 3
3 2 1 2 4 7 7 8 7 5 6 5 5 3 2 1 1 1 1 1 2 1 1 1 2 2 2 2 2 3 3 2 2 1 1 1 1 1 2 2 2 3 3 4 4 4 5 4 4
5 4 3 4 5 6 4 8 7 2 3 4 5 4 3 2 1 1 1 1 1 1 1 1 2 2 2 2 2 3 3 3 3 2 2 2 1 1 2 3 3 3 3 3 4 4 4 4 5
7 7 5 5 6 4 5 9 4 0 1 2 3 3 3 2 1 1 1 1 1 1 1 1 2 1 2 2 2 3 3 2 2 3 2 2 2 2 2 3 3 3 3 3 3 3 3 3 4
6 6 4 3 3 6 7 6 4 2 2 2 3 3 3 2 1 1 1 1 1 0 0 1 1 2 2 2 2 3 2 3 2 3 3 2 2 2 2 2 2 2 2 2 2 2 2 2 3
3 3 4 5 6 8 7 8 5 5 4 4 4 3 2 1 1 1 1 1 1 1 1 1 1 1 2 2 2 2 3 3 3 2 2 2 2 2 2 2 2 2 2 2 2 2 2 2 3
5 5 4 4 5 6 7 5 1 4 4 4 4 3 2 2 1 1 1 1 1 1 1 1 1 1 1 2 2 2 2 2 2 2 2 2 2 2 2 2 2 2 2 2 2 3 3 3 3
6 7 7 6 6 6 7 5 2 2 3 3 3 3 2 1 1 1 1 1 1 1 1 1 1 1 1 2 2 2 2 2 2 2 2 2 2 2 2 2 2 2 2 2 3 3 3 3 4
Wind_Direction
313 268 232 229 222 221 229 209 207 169 177 130 111 192 214 262 345 55 70 122 132 148 150 148 143 142 140 137 134 129 124 119 113 110 110 107 105 106 103 99 93 90 90 87 85 83 80 80 81
298 245 219 229 233 219 212 209 200 181 119 136 151 176 173 113 47 72 114 126 147 147 146 143 130 137 138 137 136 131 127 123 119 115 113 110 109 105 106 101 95 90 91 89 87 84 81 80 82
237 253 231 216 229 233 213 178 193 146 145 181 166 188 344 70 83 92 97 145 147 141 138 124 123 128 131 135 135 130 127 124 122 116 112 110 106 103 105 103 96 91 91 89 87 84 81 79 79
225 202 215 227 220 231 238 156 156 166 164 190 192 149 115 51 39 66 111 143 142 137 134 120 118 118 120 123 126 125 124 119 115 112 108 106 102 97 97 98 95 93 93 90 87 83 79 77 77
230 222 208 218 230 223 235 283 213 198 175 168 196 163 126 85 48 86 118 136 139 135 131 124 111 112 111 113 115 116 118 115 111 109 107 102 98 95 92 93 92 91 92 92 89 86 82 79 76
197 221 221 221 219 216 213 233 215 215 180 154 188 174 118 89 90 103 117 126 133 134 133 127 114 108 109 109 107 108 108 109 108 107 104 98 93 93 92 89 87 88 90 92 88 86 84 80 78
219 217 231 230 226 221 203 199 224 220 205 180 207 175 131 119 103 119 128 124 121 124 130 130 135 127 112 104 102 101 100 98 100 99 98 94 90 89 89 90 85 83 84 88 88 85 84 82 80
270 224 222 223 227 226 165 184 238 245 219 81 220 208 144 130 124 128 124 121 121 119 125 127 131 136 137 127 102 97 94 89 91 91 89 91 93 93 86 95 84 80 79 79 82 82 81 81 81
226 225 227 223 223 206 150 192 169 262 165 136 144 11 55 122 138 138 132 132 130 127 130 135 134 132 138 134 119 114 103 94 102 104 97 115 136 131 122 85 78 81 80 79 78 79 80 86 101
205 223 234 261 260 192 129 212 192 186 196 201 170 110 110 139 152 156 160 160 157 152 149 146 144 141 138 135 138 141 135 128 134 126 127 142 142 128 123 98 85 82 84 87 76 76 109 220 151
194 225 217 203 249 286 202 224 269 223 225 231 221 179 154 160 166 174 176 172 168 159 150 145 150 148 143 132 138 138 140 140 138 127 126 129 135 146 158 150 148 149 149 149 128 175 200 231 224
183 213 234 229 189 241 258 259 251 248 263 354 301 194 170 177 182 186 182 178 171 162 154 145 148 148 147 139 140 147 145 145 137 128 140 156 149 157 149 179 186 195 199 198 205 237 241 253 248
205 197 197 223 223 234 249 255 271 265 280 295 276 195 190 190 192 193 182 175 172 169 164 152 147 144 144 144 138 146 154 156 145 138 156 156 159 159 160 166 171 245 267 241 238 240 244 248 252
180 183 204 233 234 234 243 259 252 259 280 256 239 219 208 203 198 190 187 183 180 175 171 161 153 147 146 149 149 141 148 159 154 145 150 172 192 177 176 184 225 248 261 271 269 272 269 265 261
170 196 219 226 231 227 247 246 232 246 249 245 239 229 219 212 201 200 195 193 186 177 169 155 148 141 137 133 132 115 111 129 153 160 168 171 190 203 214 228 222 247 260 254 259 272 277 280 276
185 211 224 189 214 219 233 248 226 233 240 243 242 232 215 207 203 204 198 194 185 173 166 155 149 149 143 142 146 138 127 119 139 169 174 177 193 212 219 229 244 268 258 255 257 260 261 263 271
199 224 231 216 185 218 229 254 241 248 243 246 245 238 224 212 209 202 196 194 186 179 169 161 162 160 150 145 136 118 106 103 98 118 142 169 202 221 225 242 262 271 265 255 255 257 261 265 273
208 219 228 228 193 226 234 252 263 268 255 252 248 240 229 224 220 205 191 185 174 169 166 164 162 162 156 146 133 114 102 90 77 88 133 203 202 214 235 229 252 252 256 269 264 264 263 273 278
226 228 242 249 256 243 243 256 264 270 262 256 251 245 238 237 220 186 172 172 165 162 166 166 165 164 162 155 159 170 175 162 116 67 40 250 247 219 220 237 235 247 242 257 265 261 252 266 292
218 230 246 254 258 263 264 263 260 253 252 253 252 250 246 240 216 191 180 176 176 174 172 167 170 171 175 178 177 193 180 193 172 137 123 262 257 241 229 230 240 247 250 253 260 248 247 240 232
228 237 243 255 278 242 274 258 237 228 237 245 249 247 242 234 231 213 199 192 188 184 184 178 175 174 174 167 155 150 160 170 190 195 190 206 260 250 244 233 232 240 246 248 250 244 238 238 226
237 242 239 239 256 252 253 269 238 219 223 225 229 231 235 230 224 217 209 201 199 199 190 187 178 177 172 172 183 193 206 214 225 231 225 231 242 261 259 250 242 240 239 245 247 242 243 239 236
235 195 226 234 244 259 230 252 253 204 228 226 219 214 207 211 221 214 207 204 195 188 188 190 179 179 178 185 192 206 219 233 231 227 228 242 237 252 270 271 258 248 244 245 248 246 242 239 242
169 160 168 215 228 246 224 235 259 212 225 223 214 208 201 170 138 131 139 154 158 153 165 186 182 183 184 193 201 211 213 217 221 234 235 245 255 263 268 270 269 260 249 241 241 242 242 241 241
204 199 208 214 221 239 195 234 250 223 229 233 218 203 192 176 150 122 126 143 145 157 171 187 195 194 192 199 214 225 228 226 227 237 244 248 251 267 271 270 261 258 256 252 245 240 241 239 238
206 218 223 239 244 241 212 235 236 212 275 257 225 196 185 182 176 160 128 126 134 149 182 201 211 218 222 219 228 233 232 236 241 246 250 247 249 257 270 266 266 264 261 261 254 250 247 243 240
193 215 248 257 278 265 233 241 248 220 222 211 198 185 180 179 174 167 142 123 129 118 7 233 218 228 242 251 243 240 242 243 245 251 248 248 254 262 264 266 266 268 267 261 256 252 249 249 250
242 184 190 212 234 248 244 238 228 199 209 204 197 188 175 167 162 163 155 137 98 72 51 23 272 248 253 255 262 260 250 250 252 252 253 255 260 268 270 276 277 274 270 264 257 250 243 241 249
182 192 208 214 247 252 256 240 191 214 210 214 211 207 190 174 151 145 146 110 73 65 57 39 355 282 264 264 267 272 275 260 253 257 261 258 255 256 259 267 271 268 268 268 262 258 248 243 250
232 218 201 217 225 239 265 259 82 238 218 213 211 204 194 177 153 134 108 84 67 49 36 20 350 311 285 272 266 267 273 275 262 261 267 260 258 257 261 262 262 268 270 266 260 262 260 254 252